Time,TemperatureF,DewpointF,PressureIn,WindDirection,WindDirectionDegrees,WindSpeedMPH,WindSpeedGustMPH,Humidity,HourlyPrecipIn,Conditions,Clouds,dailyrainin,SolarRadiationWatts/m^2,SoftwareType,DateUTC
2014-01-21 02:42:00,32.0,27.0,-100.00,North,-999,0.0,3.0,83,-99.99,,,0.00,0.000000,,2014-01-21 07:42:00,
2014-01-21 02:53:00,32.0,27.0,-100.00,North,-999,0.0,3.0,83,-99.99,,,0.00,0.000000,,2014-01-21 07:53:00,
2014-01-21 03:01:00,32.0,27.0,-100.00,North,-999,0.0,3.0,83,-99.99,,,0.00,0.000000,,2014-01-21 08:01:00,
2014-01-21 03:42:00,41.0,31.0,-100.00,SSW,203,4.0,8.0,66,0.00,,,0.00,0.000000,,2014-01-21 08:42:00,
2014-01-21 03:52:00,41.0,31.0,-100.00,SSW,203,4.0,8.0,66,0.00,,,0.00,0.000000,,2014-01-21 08:52:00,
2014-01-21 04:02:00,41.0,31.0,-100.00,SSW,203,4.0,8.0,66,0.00,,,0.00,0.000000,,2014-01-21 09:02:00,
2014-01-21 04:43:00,41.0,29.0,-100.00,SSW,198,2.0,7.0,62,0.00,,,0.00,0.000000,,2014-01-21 09:43:00,
2014-01-21 04:53:00,41.0,29.0,-100.00,SSW,198,2.0,7.0,62,0.00,,,0.00,0.000000,,2014-01-21 09:53:00,
2014-01-21 05:03:00,41.0,29.0,-100.00,SSW,198,2.0,7.0,62,0.00,,,0.00,0.000000,,2014-01-21 10:03:00,
2014-01-21 05:42:00,38.0,29.0,-100.00,East,86,1.0,5.0,70,0.00,,,0.00,0.000000,,2014-01-21 10:42:00,
2014-01-21 05:53:00,38.0,29.0,-100.00,East,86,1.0,5.0,70,0.00,,,0.00,0.000000,,2014-01-21 10:53:00,
2014-01-21 06:03:00,38.0,29.0,-100.00,East,86,1.0,5.0,70,0.00,,,0.00,0.000000,,2014-01-21 11:03:00,
2014-01-21 07:42:00,40.0,29.0,-100.00,WSW,242,2.0,12.0,64,-99.99,,,0.00,0.000000,,2014-01-21 12:42:00,
2014-01-21 07:52:00,40.0,29.0,-100.00,WSW,242,2.0,12.0,64,-99.99,,,0.00,0.000000,,2014-01-21 12:52:00,
2014-01-21 08:02:00,40.0,29.0,-100.00,WSW,242,2.0,12.0,64,-99.99,,,0.00,0.000000,,2014-01-21 13:02:00,
2014-01-21 08:42:00,39.0,29.0,-100.00,WSW,240,2.0,10.0,68,0.00,,,0.00,2.000000,,2014-01-21 13:42:00,
2014-01-21 08:52:00,39.0,29.0,-100.00,WSW,240,2.0,10.0,68,0.00,,,0.00,2.000000,,2014-01-21 13:52:00,
2014-01-21 09:02:00,39.0,29.0,-100.00,WSW,240,2.0,10.0,68,0.00,,,0.00,2.000000,,2014-01-21 14:02:00,
2014-01-21 09:42:00,42.0,31.0,-100.00,WNW,286,5.0,12.0,64,0.00,,,0.00,55.000000,,2014-01-21 14:42:00,
2014-01-21 09:52:00,42.0,31.0,-100.00,WNW,286,5.0,12.0,64,0.00,,,0.00,55.000000,,2014-01-21 14:52:00,
2014-01-21 10:02:00,42.0,31.0,-100.00,WNW,286,5.0,12.0,64,0.00,,,0.00,55.000000,,2014-01-21 15:02:00,
2014-01-21 10:43:00,42.0,29.0,-100.00,WNW,303,7.0,17.0,59,0.00,,,0.00,92.000000,,2014-01-21 15:43:00,
2014-01-21 10:53:00,42.0,29.0,-100.00,WNW,303,7.0,17.0,59,0.00,,,0.00,92.000000,,2014-01-21 15:53:00,
2014-01-21 11:04:00,42.0,29.0,-100.00,WNW,303,7.0,17.0,59,0.00,,,0.00,92.000000,,2014-01-21 16:04:00,
2014-01-21 11:43:00,42.0,28.0,-100.00,NW,314,9.0,23.0,58,0.00,,,0.00,121.000000,,2014-01-21 16:43:00,
2014-01-21 11:53:00,42.0,28.0,-100.00,NW,314,9.0,23.0,58,0.00,,,0.00,121.000000,,2014-01-21 16:53:00,
2014-01-21 12:02:00,42.0,28.0,-100.00,NW,314,9.0,23.0,58,0.00,,,0.00,121.000000,,2014-01-21 17:02:00,
2014-01-21 12:42:00,40.0,31.0,-100.00,WNW,285,9.0,23.0,69,0.00,,,0.00,161.000000,,2014-01-21 17:42:00,
2014-01-21 12:53:00,40.0,31.0,-100.00,WNW,285,9.0,23.0,69,0.00,,,0.00,161.000000,,2014-01-21 17:53:00,
2014-01-21 13:02:00,40.0,31.0,-100.00,WNW,285,9.0,23.0,69,0.00,,,0.00,161.000000,,2014-01-21 18:02:00,
2014-01-21 13:42:00,41.0,29.0,-100.00,West,276,10.0,25.0,61,0.00,,,0.00,236.000000,,2014-01-21 18:42:00,
2014-01-21 13:52:00,41.0,29.0,-100.00,West,276,10.0,25.0,61,0.00,,,0.00,236.000000,,2014-01-21 18:52:00,
2014-01-21 14:02:00,41.0,29.0,-100.00,West,276,10.0,25.0,61,0.00,,,0.00,236.000000,,2014-01-21 19:02:00,
2014-01-21 14:42:00,35.0,24.0,-100.00,WNW,285,9.0,27.0,63,0.00,,,0.00,182.000000,,2014-01-21 19:42:00,
2014-01-21 14:52:00,35.0,24.0,-100.00,WNW,285,9.0,27.0,63,0.00,,,0.00,182.000000,,2014-01-21 19:52:00,
2014-01-21 15:02:00,35.0,24.0,-100.00,WNW,285,9.0,27.0,63,0.00,,,0.00,182.000000,,2014-01-21 20:02:00,
2014-01-21 15:42:00,37.0,22.0,-100.00,NW,312,16.0,26.0,54,0.00,,,0.00,291.000000,,2014-01-21 20:42:00,
2014-01-21 15:52:00,37.0,22.0,-100.00,NW,312,16.0,26.0,54,0.00,,,0.00,291.000000,,2014-01-21 20:52:00,
2014-01-21 16:02:00,37.0,22.0,-100.00,NW,312,16.0,26.0,54,0.00,,,0.00,291.000000,,2014-01-21 21:02:00,
2014-01-21 16:43:00,27.0,14.0,-100.00,NW,306,15.0,31.0,58,0.00,,,0.00,204.000000,,2014-01-21 21:43:00,
2014-01-21 16:53:00,27.0,14.0,-100.00,NW,306,15.0,31.0,58,0.00,,,0.00,204.000000,,2014-01-21 21:53:00,
2014-01-21 17:03:00,27.0,14.0,-100.00,NW,306,15.0,31.0,58,0.00,,,0.00,204.000000,,2014-01-21 22:03:00,
2014-01-21 17:43:00,25.0,12.0,-100.00,NW,312,10.0,29.0,56,0.00,,,0.00,84.000000,,2014-01-21 22:43:00,
2014-01-21 17:53:00,25.0,12.0,-100.00,NW,312,10.0,29.0,56,0.00,,,0.00,84.000000,,2014-01-21 22:53:00,
2014-01-21 18:02:00,25.0,12.0,-100.00,NW,312,10.0,29.0,56,0.00,,,0.00,84.000000,,2014-01-21 23:02:00,
2014-01-21 18:42:00,24.0,11.0,-100.00,NW,314,9.0,18.0,57,0.00,,,0.00,10.000000,,2014-01-21 23:42:00,
2014-01-21 18:52:00,24.0,11.0,-100.00,NW,314,9.0,18.0,57,0.00,,,0.00,10.000000,,2014-01-21 23:52:00,
2014-01-21 19:02:00,24.0,11.0,-100.00,NW,314,9.0,18.0,57,0.00,,,0.00,10.000000,,2014-01-22 00:02:00,
2014-01-21 19:42:00,23.0,10.0,-100.00,NNW,330,11.0,20.0,57,0.00,,,0.00,0.000000,,2014-01-22 00:42:00,
2014-01-21 19:52:00,23.0,10.0,-100.00,NNW,330,11.0,20.0,57,0.00,,,0.00,0.000000,,2014-01-22 00:52:00,
2014-01-21 20:02:00,23.0,10.0,-100.00,NNW,330,11.0,20.0,57,0.00,,,0.00,0.000000,,2014-01-22 01:02:00,
2014-01-21 20:42:00,23.0,9.0,-100.00,NNW,347,11.0,20.0,55,0.00,,,0.00,0.000000,,2014-01-22 01:42:00,
2014-01-21 20:52:00,23.0,9.0,-100.00,NNW,347,11.0,20.0,55,0.00,,,0.00,0.000000,,2014-01-22 01:52:00,
2014-01-21 21:42:00,22.0,13.0,-100.00,NNW,336,7.0,17.0,67,0.00,,,0.00,0.000000,,2014-01-22 02:42:00,
2014-01-21 21:52:00,22.0,13.0,-100.00,NNW,336,7.0,17.0,67,0.00,,,0.00,0.000000,,2014-01-22 02:52:00,
2014-01-21 22:02:00,22.0,13.0,-100.00,NNW,336,7.0,17.0,67,0.00,,,0.00,0.000000,,2014-01-22 03:02:00,
2014-01-21 22:43:00,22.0,11.0,-100.00,NW,325,7.0,13.0,61,0.00,,,0.00,0.000000,,2014-01-22 03:43:00,
2014-01-21 22:54:00,22.0,11.0,-100.00,NW,325,7.0,13.0,61,0.00,,,0.00,0.000000,,2014-01-22 03:54:00,
2014-01-21 23:04:00,22.0,11.0,-100.00,NW,325,7.0,13.0,61,0.00,,,0.00,0.000000,,2014-01-22 04:04:00,
2014-01-21 23:43:00,20.0,3.0,-100.00,NW,313,9.0,17.0,47,0.00,,,0.00,0.000000,,2014-01-22 04:43:00,
2014-01-21 23:53:00,20.0,3.0,-100.00,NW,313,9.0,17.0,47,0.00,,,0.00,0.000000,,2014-01-22 04:53:00,